Юрбаркас

Литва     55°04′49″N   22°45′31″E
темп.,
°C
ветер,
м/с
пор.,
м/с
влажн.,
%
обл.,
%
осадки,
мм/ч
давл.,
гПа
погр.,
м
26 октября, вт
вт2600:00+5ю41074100 0.0 1020219
03:00+4ю3977100 0.0 1019184
06:00+4ююз3979100 0.0 1018179
09:00+4ююз3978100 0.0 1017201
12:00+8юз4964100 0.0 1017367
15:00+10юз5960100 0.0 1016589
18:00+8юз41071100 0.0 1015244
21:00+9зюз61277100 0.2 1015498
27 октября, ср
ср2700:00+9зюз61495100 3.8 1015784
03:00+9з6129067 3.8 1016577
06:00+9з71184100 0.0 1017730
09:00+8зюз51193100 0.0 1017549
12:00+10юз51083100 0.0 1017476
15:00+10юз51283100 0.0 1017678
18:00+11юз71487100 0.2 1015727
21:00+11зюз71487100 0.2 1015984
28 октября, чт
чт2800:00+12зюз71685100 0.3 10151144
03:00+13з81487100 0.4 1015984
06:00+12з61294100 0.1 1016741
09:00+12з51195100 0.1 1018547
12:00+12з4993100 0.0 1020510
15:00+12з4894100 0.0 1021514
18:00+12зюз3694100 0.0 1022299
21:00+11юз2494100 0.0 102397
29 октября, пт
пт2900:00+10ююз339519 0.0 102445
03:00+9ю34945 0.0 102472
06:00+9ю359385 0.0 102479
09:00+8ююв369389 0.0 1024114
12:00+13ю510745 0.0 1023390
15:00+16ю512678 0.0 1022669
18:00+12ююв4107543 0.0 1020199
21:00+10ююв4128117 0.0 1020277
30 октября, сб
сб3000:00+9ююв4108353 0.0 1020212
03:00+8ююв4108253 0.0 1019202
06:00+7ююв4108422 0.0 1018180
09:00+6ююв498194 0.0 1018163
12:00+12ю5135418 0.0 1018681
15:00+14ююз5104928 0.0 1018728
18:00+10ююз3864100 0.0 1018121
21:00+8ю3870100 0.0 1019150